Regional Weather Roundup
Issued by NWS

Home | Current Version | Previous Version | Graphics & Text | Print | Product List | Glossary On
Versions: 1 2 3 4 5 6 7 8 9 10 11 12 13 14 15 16 17 18 19 20 21 22 23 24 25 26 27 28 29 30 31 32 33 34 35 36 37 38 39 40 41 42 43 44 45 46 47 48 49 50
000
ASUS43 KLMK 111702
RWRKY
KENTUCKY REGIONAL WEATHER ROUNDUP
NATIONAL WEATHER SERVICE LOUISVILLE KY
1200 PM EST THU FEB 11 2016

NOTE "FAIR" INDICATES FEW OR NO CLOUDS BELOW 12,000 FEET
WITH NO SIGNIFICANT WEATHER AND/OR OBSTRUCTIONS TO VISIBILITY.

KYZ001>023-026-027-061>063-070>075-111800-
WESTERN AND SOUTH CENTRAL KENTUCKY

CITY           SKY/WX    TMP DP  RH WIND       PRES   REMARKS
PADUCAH        MOSUNNY   32  23  69 NE8       30.29F WCI  25
HENDERSON      CLOUDY    25  16  68 N8        30.33R WCI  16
OWENSBORO      CLOUDY    25  16  68 CALM      30.33R
HOPKINSVILLE   CLOUDY    30  21  70 E8        30.28R WCI  22
BOWLING GREEN  MOSUNNY   32  20  61 E8        30.29S WCI  25
GLASGOW        NOT AVBL
$$

KYZ024-025-028>034-038-045-046-053-111800-
NORTH CENTRAL KENTUCKY

CITY           SKY/WX    TMP DP  RH WIND       PRES   REMARKS
LOUISVILLE/SDF MOSUNNY   27   8  44 CALM      30.31S
LOUISVILLE/LOU SUNNY     26   8  46 CALM      30.32R
FORT KNOX      CLOUDY    26  11  54 E3        30.27S
$$

KYZ035>037-039>044-047>052-055>060-089>105-111800-
NORTHEAST KENTUCKY

CITY           SKY/WX    TMP DP  RH WIND       PRES   REMARKS
LEXINGTON      MOSUNNY   23   9  55 W7        30.28R WCI  15
COVINGTON      MOSUNNY   21   6  52 CALM      30.28S
FRANKFORT      SUNNY     24   7  48 VRB3      30.28R
$$

KYZ054-064>069-076>088-106>120-111800-
SOUTHEAST KENTUCKY

CITY           SKY/WX    TMP DP  RH WIND       PRES   REMARKS
JACKSON        MOSUNNY   23   7  50 MISG      30.23S
LONDON         CLOUDY    26  13  57 CALM      30.24F
SOMERSET       NOT AVBL
MIDDLESBORO    CLOUDY    29  17  59 E3        30.24S
MONTICELLO     PTSUNNY   30  19  63 W6        30.28R WCI  24
$$




USA.gov is the U.S. government's official web portal to all federal, state and local government web resources and services.